Regional Weather Roundup
Issued by NWS

Home | Current Version | Previous Version | Graphics & Text | Print | Product List | Glossary On
Versions: 1 2 3 4 5 6 7 8 9 10 11 12 13 14 15 16 17 18 19 20 21 22 23 24 25 26 27 28 29 30 31 32 33 34 35 36 37 38 39 40 41 42 43 44 45 46 47 48 49 50
000
ASUS43 KIND 281009
RWRIN

WEATHER ROUNDUP FOR INDIANA
NATIONAL WEATHER SERVICE INDIANAPOLIS IN
600 AM EDT SAT MAY 28 2016

NOTE: "FAIR" INDICATES FEW OR NO CLOUDS BELOW 12,000 FEET WITH NO
SIGNIFICANT WEATHER AND/OR OBSTRUCTIONS TO VISIBILITY.

* - STATION DOES NOT REPORT WEATHER SUCH AS PRECIPITATION OR FOG.

+ - STATION NOT QUALITY CONTROLLED BY THE NATIONAL WEATHER SERVICE.
    USE DATA WITH CAUTION...ESPECIALLY DEWPOINT AND RELATIVE
    HUMIDITY OBSERVATIONS.

INZ001>003-010>013-019-020-281100-
NORTHWEST INDIANA

CITY           SKY/WX    TMP DP  RH WIND       PRES   REMARKS
GARY /AIRPORT/ PTCLDY    72  70  94 S7        29.89R
KNOX *+        CLOUDY    72  54  53 S12       29.91F
LA PORTE +     CLOUDY    72  68  87 S6        29.92S
MICHIGAN CITY+ CLOUDY    70  64  83 S6        29.91S
MONTICELLO +   MOCLDY    74  60  59 S8        29.93R
RENSSELAER +   CLOUDY    72  64  78 S15       29.92R
VALPARAISO     CLOUDY    70  64  81 S8        29.91S

$$

LMZ046-743>745-281100-
SOUTHERN LAKE MICHIGAN

STATION/POSITION TIME  TEMP    WIND        PRES    WAVE
                       AIR SEA DIR/SP/G            HT
                 (UTC) (F)     (DEG/KT/KT) (MB)    (FT)
BURNS HARBOR     0903   72     160/ 11/ 19 1012.5S
MICHIGAN CITY    0900   71     140/  8/ 11   N/A
5NW MICH CITY    1000   68 58  170/ 10/ 14   N/A     1

$$

INZ004-005-014>016-021>024-281100-
NORTH CENTRAL INDIANA

CITY           SKY/WX    TMP DP  RH WIND       PRES   REMARKS
GOSHEN         LGT RAIN  73  63  70 S14       29.95S
LOGANSPORT +   CLOUDY    72  63  73 S9        29.96R
PERU/GRISSOM   CLOUDY    74  65  73 S8        29.95R
ROCHESTER +    CLOUDY    77  64  65 S9        29.95S
SOUTH BEND     CLOUDY    72  62  71 S10       29.93S
WARSAW +       MOCLDY    68  64  88 CALM      29.96R

$$

INZ006>009-017-018-025>027-281100-
NORTHEAST INDIANA

CITY           SKY/WX    TMP DP  RH WIND       PRES   REMARKS
ANGOLA *+        N/A     68  61  77 SE3       29.98S
AUBURN +       CLEAR     70  63  78 CALM      29.99R
FORT WAYNE     MOCLDY    71  63  75 S9        29.99R
HUNTINGTON +   CLOUDY   N/A N/A N/A S5        29.98R

$$

INZ028-029-035-036-043>045-051>053-281100-
WEST CENTRAL INDIANA

CITY           SKY/WX    TMP DP  RH WIND       PRES   REMARKS
CRAWFORDSVL +  CLOUDY    71  64  80 S12       29.96R
GREENCASTLE +  PTCLDY    70  66  88 S7        29.98R
LAFAYETTE      CLOUDY    74  62  66 S10       29.93R
TERRE HAUTE    CLOUDY    73  64  73 S8        29.95R

$$

INZ030>032-037>040-046>048-054>057-064-065-281100-
CENTRAL INDIANA

CITY           SKY/WX    TMP DP  RH WIND       PRES   REMARKS
CP ATTERBURY + CLOUDY    68  64  88 CALM      30.00R
FISHERS *+     CLOUDY    72  66  83 S7        29.99R
FRANKFORT +      N/A     74  55  50 S7        29.97S
GREENWOOD *+   PTCLDY    72  64  78 SE6       30.00R
INDIANAPOLIS   CLOUDY    72  64  76 S9        29.96S
-EAGLE CREEK   CLOUDY    73  64  73 SE6       29.97R
KOKOMO *+      CLOUDY    72  63  73 S8        29.97R
MARION +       CLOUDY    72  63  75 S12       29.99R
SHELBYVILLE    LGT RAIN  73  65  75 S10       30.00R
ZIONSVILLE +   CLOUDY    71  64  77 S8        29.98S

$$

INZ033-034-041-042-049-050-058-059-281100-
EAST CENTRAL INDIANA

CITY           SKY/WX    TMP DP  RH WIND       PRES   REMARKS
MUNCIE         MOCLDY    74  63  68 S9        29.99S

$$

INZ060-061-067>069-081>083-085>088-281100-
SOUTHWEST INDIANA

CITY           SKY/WX    TMP DP  RH WIND       PRES   REMARKS
EVANSVILLE     MOCLDY    71  65  81 S3        29.98R
HUNTINGBURG *+ CLEAR     70  63  78 SE6       29.99R
WASHINGTON +   CLOUDY    72  67  86 S9        29.97R

$$

INZ062-063-066-070>080-084-089>092-281100-
SOUTH CENTRAL AND SOUTHEAST INDIANA

CITY           SKY/WX    TMP DP  RH WIND       PRES   REMARKS
BEDFORD +      CLOUDY    70  70 100 S7        29.99R
BLOOMINGTON    CLOUDY    71  64  78 S5        29.98S
MADISON *+     CLOUDY    68  63  83 S5        30.05R
NORTH VERNON + CLOUDY   N/A N/A N/A CALM      30.03R
SEYMOUR +      MOCLDY    70  66  88 CALM      30.01R

$$




USA.gov is the U.S. government's official web portal to all federal, state and local government web resources and services.